Location: Doverdale
(52.2833°N, 2.2000°W)
Time: 02:23:57
(UTC+00:00)

Cosmos 1980 Rocket - Pass Details

Date: 06 March 2021
Orbit: 828 x 851 km, 71.0° (Epoch: 15 April)

Event Time Altitude Azimuth Distance (km) Brightness Sun altitude
Rises 19:52:28 0° 273° (W) 3,410 6.9 -18.2°
Reaches altitude 10° 19:55:49 10° 293° (WNW) 2,480 5.9 -18.7°
Maximum altitude 19:59:31 17° 334° (NNW) 2,014 4.7 -19.3°
Drops below altitude 10° 20:03:14 10° 15° (NNE) 2,490 4.7 -19.8°
Sets 20:06:37 0° 35° (NE) 3,429 5.2 -20.3°
